Flag for U.S.A. Weather past 2 weeks in Wake Island, Wake Island, U.S.A.

Now
87 °F

Passing clouds.


Feels Like: 98 °F
Forecast: 81 / 88 °F
Wind: 18 mph from East

Location: Wake Island Airfld

Current Time: Jul 1, 2015 at 2:40:38 PM

Latest Report: Jul 1, 2015 at 1:58 PM


Visibility: N/A

Pressure: 29.93 "Hg

Humidity: 68%

Dew point: 76 °F

Location of Wake IslandLocation

Historic Weather in Wake Island — Graph

°F

Wake Island temperature yesterday

Maximum temperature yesterday: 88 °F (at 2:58 PM)
Minimum temperature yesterday: 80 °F (at 2:58 AM)
Average temperature yesterday: 83 °F

Past Weeks' High & Low Weather Summary

 TemperatureHumidityPressure
High88 °F (Jun 30, 2:58 PM)100% (Jun 24, 2:58 AM)30.02 "Hg (Jun 24, 2:58 AM)
Low75 °F (Jun 24, 2:58 AM)62% (Jun 22, 3:58 PM)29.86 "Hg (Jun 16, 3:58 PM)
Average83 °F78%29.93 "Hg
* Reported Jun 16 12:58 PM — Jul 1 12:58 PM, Wake Island, Weather by CustomWeather, © 2015

Note: Actual official high and low records may vary slightly from our data, if they occured in-between our weather recording intervals... More about our weather records

Advertising

Wake Island weather history for previous 24 hours

 ConditionsComfort  
Time TempWeatherWind HumidityBarometerVisibility
12:58 PM
Wed, Jul 1
87 °FPassing clouds.21 mph67%29.94 "HgN/A
11:58 AM87 °FPassing clouds.17 mph68%29.95 "HgN/A
10:58 AM86 °FScattered clouds.17 mph69%29.96 "HgN/A
9:58 AM84 °FPartly sunny.17 mph75%29.96 "Hg6 mi
8:58 AM84 °FHaze.18 mph75%29.95 "Hg6 mi
7:58 AM83 °FScattered clouds.16 mph76%29.94 "Hg5 mi
6:58 AM81 °FHaze.15 mph80%29.92 "Hg6 mi
5:58 AM80 °FPassing clouds.13 mph86%29.90 "HgN/A
4:58 AM81 °FOvercast.21 mph83%29.90 "HgN/A
3:58 AM80 °FPassing clouds.14 mph83%29.90 "HgN/A
2:58 AM81 °FLight rain. Passing clouds.17 mph82%29.91 "HgN/A
1:58 AM81 °FClear.18 mph80%29.93 "HgN/A
12:58 AM81 °FPassing clouds.17 mph82%29.94 "HgN/A
12:03 AM81 °FPassing clouds.18 mph84%29.93 "HgN/A
11:58 PM
Tue, Jun 30
81 °FPassing clouds.16 mph80%29.95 "HgN/A
10:58 PM82 °FPassing clouds.16 mph82%29.95 "HgN/A
9:58 PM82 °FPassing clouds.17 mph80%29.94 "HgN/A
9:03 PM82 °FPassing clouds.20 mph79%29.91 "HgN/A
7:58 PM82 °FScattered clouds.20 mph79%29.92 "HgN/A
6:58 PM83 °FScattered clouds.17 mph77%29.91 "HgN/A
5:58 PM85 °FSunny.20 mph74%29.90 "HgN/A
4:58 PM86 °FScattered clouds.18 mph71%29.90 "HgN/A
3:58 PM87 °FPassing clouds.18 mph69%29.90 "HgN/A
3:03 PM88 °FScattered clouds.20 mph70%29.89 "HgN/A
2:58 PM88 °FBroken clouds.18 mph70%29.91 "HgN/A
Weather by CustomWeather, © 2015

See weather overviewHow to use our weather pages